Regional Weather Roundup
Issued by NWS Charleston, WV

Home | Current Version | Previous Version | Graphics & Text | Print | Product List | Glossary On
Versions: 1 2 3 4 5 6 7 8 9 10 11 12 13 14 15 16 17 18 19 20 21 22 23 24 25 26 27
000
ASUS41 KRLX 171610
RWRRLX
West Virginia Regional Weather Roundup
National Weather Service Charleston WV
1200 PM EDT THU APR 17 2014

Note: "fair" indicates few or no clouds below 12,000 feet with no
significant weather and/or obstructions to visibility.

WVZ003-171700-
Northern Panhandle of West Virginia

CITY           SKY/WX    TMP DP  RH WIND       PRES   REMARKS
WHEELING       SUNNY     54  23  30 S10       30.43F
$$

WVZ009-171700-
Northwest West Virginia

CITY           SKY/WX    TMP DP  RH WIND       PRES   REMARKS
PARKERSBURG    SUNNY     57  24  28 S8        30.46F
$$

WVZ006-171700-
Western West Virginia

CITY           SKY/WX    TMP DP  RH WIND       PRES   REMARKS
HUNTINGTON     MOSUNNY   59  26  28 VRB5      30.42F
$$

WVZ015-171700-
West Central West Virginia

CITY           SKY/WX    TMP DP  RH WIND       PRES   REMARKS
CHARLESTON     MOSUNNY   59  22  24 SE6       30.43F
$$

WVZ031-171700-
North Central West Virginia

CITY           SKY/WX    TMP DP  RH WIND       PRES   REMARKS
CLARKSBURG     MOSUNNY   57  20  23 VRB3      30.44F
MORGANTOWN     SUNNY     57  19  22 S8        30.46F
$$

WVZ035-042-045-171700-
South Central West Virginia

CITY           SKY/WX    TMP DP  RH WIND       PRES   REMARKS
BECKLEY        SUNNY     49  22  34 E12       30.47R
BLUEFIELD      MOSUNNY   50  19  29 VRB6      30.47S
LEWISBURG      SUNNY     45  18  33 SE5       30.50S
$$

WVZ047-171700-
Northern Mountains of West Virginia

CITY           SKY/WX    TMP DP  RH WIND       PRES   REMARKS
ELKINS         SUNNY     56  19  23 N5        30.45F
$$

WVZ052-171700-
Eastern Panhandle of West Virginia

CITY           SKY/WX    TMP DP  RH WIND       PRES   REMARKS
MARTINSBURG    MOSUNNY   49  26  41 VRB7      30.62F
PETERSBURG     SUNNY     54  31  41 E7        30.56F
$$



USA.gov is the U.S. government's official web portal to all federal, state and local government web resources and services.